Raton, NM

6:40 PM MDT on September 19, 2017 (GMT -0600)
Raton Municipal-Crews

Weather History for KRTN - April, 2013

Change the Weather History Date:

Tuesday, April 2, 2013

  Actual Average (KTAD) Record (KTAD)
Temperature  
Mean Temperature 36 °F -  
Max Temperature 44 °F 60 °F 85 °F (2011)
Min Temperature 28 °F 29 °F 9 °F (1975)
Degree Days  
Heating Degree Days 30    
Moisture  
Dew Point 30 °F    
Average Humidity 76    
Maximum Humidity 100    
Minimum Humidity 60    
Precipitation  
Precipitation 0.00 in - - ()
Sea Level Pressure  
Sea Level Pressure 30.01 in    
Wind  
Wind Speed 5 mph (South)    
Max Wind Speed 15 mph    
Max Gust Speed -    
Visibility 9 miles    
Events      
Averages and records for this station are not official NWS values.
T = Trace of Precipitation, MM = Missing Value Source: NWS Daily Summary

Daily Weather History Graph

Daily Weather History Graph

Search for Another Location

Airport or City:

Trip Planner

Search our weather history database for the weather conditions in past years. The results will help you decide how hot, cold, wet, or windy it might be!

Date:

Astronomy

Apr. 02, 2013 Rise Set
Actual Time 6:41 AM MDT 7:21 PM MDT
Civil Twilight 6:15 AM MDT 7:47 PM MDT
Nautical Twilight 5:45 AM MDT 8:18 PM MDT
Astronomical Twilight 5:13 AM MDT 8:50 PM MDT
Moon 1:22 AM MDT (4/2) 11:41 AM MDT (4/2)
Length of Visible Light 13h 31m
Length of Day
12h 39m
Waning Gibbous, 55% of the Moon is Illuminated
Apr 2
Waning Gibbous
Apr 2
Last Quarter
Apr 10
New
Apr 18
First Quarter
Apr 25
Full

Hourly Weather History & Observations

Time (MDT) Temp. Windchill Dew Point Humidity Pressure Visibility Wind Dir Wind Speed Gust Speed Precip Events Conditions
12:53 AM 30.9 °F - 25.0 °F 79% 29.95 in 10.0 mi Calm Calm - N/A   Clear
1:53 AM 28.9 °F 25.2 °F 25.0 °F 85% 29.97 in 10.0 mi South 3.5 mph - N/A   Mostly Cloudy
2:53 AM 30.9 °F 27.5 °F 26.1 °F 82% 29.95 in 10.0 mi SSE 3.5 mph - N/A   Overcast
3:53 AM 33.1 °F 30.0 °F 27.0 °F 78% 29.92 in 10.0 mi West 3.5 mph - N/A   Overcast
4:53 AM 34.0 °F 28.8 °F 27.0 °F 75% 29.92 in 10.0 mi ESE 5.8 mph - N/A   Overcast
5:53 AM 35.1 °F 32.2 °F 27.0 °F 72% 29.94 in 10.0 mi ESE 3.5 mph - N/A   Overcast
6:53 AM 35.1 °F - 28.0 °F 76% 29.97 in 10.0 mi Calm Calm - N/A   Overcast
7:53 AM 35.1 °F - 28.9 °F 78% 30.02 in 8.0 mi Calm Calm - N/A   Overcast
8:16 AM 33.8 °F 29.6 °F 30.2 °F 87% 30.09 in 6.0 mi SW 4.6 mph - N/A   Overcast
8:53 AM 34.0 °F 28.0 °F 32.0 °F 92% 30.05 in 3.0 mi SSW 6.9 mph - N/A   Overcast
9:22 AM 33.8 °F 29.6 °F 33.8 °F 100% 30.09 in 2.5 mi SW 4.6 mph - N/A   Overcast
9:37 AM 33.8 °F 28.6 °F 33.8 °F 100% 30.08 in 1.8 mi SSW 5.8 mph - 0.00 in   Overcast
9:49 AM 33.8 °F 27.0 °F 33.8 °F 100% 30.08 in 3.0 mi SSW 8.1 mph - 0.00 in   Overcast
9:53 AM 35.1 °F 28.6 °F 33.1 °F 92% 30.05 in 3.0 mi SSW 8.1 mph - 0.00 in   Overcast
10:53 AM 36.0 °F 30.3 °F 33.1 °F 89% 30.06 in 9.0 mi SSW 6.9 mph - N/A   Overcast
11:05 AM 37.4 °F 32.1 °F 33.8 °F 87% 30.08 in 10.0 mi SW 6.9 mph - N/A   Overcast
11:53 AM 39.9 °F 35.8 °F 30.9 °F 70% 30.02 in 10.0 mi West 5.8 mph - N/A   Overcast
12:53 PM 41.0 °F 36.4 °F 30.0 °F 65% 30.02 in 10.0 mi SSW 6.9 mph - N/A   Overcast
1:53 PM 41.0 °F - 30.0 °F 65% 30.01 in 10.0 mi Calm Calm - N/A   Overcast
2:53 PM 43.0 °F - 30.0 °F 60% 29.98 in 10.0 mi Calm Calm - N/A   Overcast
3:44 PM 42.8 °F 40.1 °F 30.2 °F 61% 30.00 in 10.0 mi WSW 4.6 mph - N/A   Overcast
3:53 PM 43.0 °F 40.3 °F 30.0 °F 60% 29.95 in 10.0 mi SSW 4.6 mph - N/A   Overcast
4:32 PM 42.8 °F 35.4 °F 30.2 °F 61% 29.99 in 10.0 mi ENE 15.0 mph - N/A   Overcast
4:53 PM 42.1 °F 36.1 °F 30.9 °F 65% 29.96 in 10.0 mi ENE 10.4 mph - N/A   Overcast
5:53 PM 42.1 °F 38.4 °F 30.0 °F 62% 29.97 in 10.0 mi ENE 5.8 mph - N/A   Overcast
6:06 PM 42.8 °F 39.3 °F 30.2 °F 61% 30.03 in 10.0 mi ENE 5.8 mph - N/A   Overcast
6:53 PM 41.0 °F 33.9 °F 30.0 °F 65% 29.98 in 10.0 mi NE 12.7 mph - N/A   Overcast
7:53 PM 39.9 °F 35.8 °F 30.0 °F 68% 29.99 in 10.0 mi North 5.8 mph - N/A   Overcast
8:48 PM 39.2 °F 32.0 °F 30.2 °F 70% 30.05 in 10.0 mi NE 11.5 mph - N/A   Overcast
8:53 PM 39.0 °F 32.8 °F 30.0 °F 70% 30.02 in 10.0 mi East 9.2 mph - N/A   Overcast
9:53 PM 37.0 °F 29.8 °F 30.0 °F 76% 30.06 in 10.0 mi SSW 10.4 mph - N/A   Overcast
10:53 PM 35.1 °F 27.4 °F 28.9 °F 78% 30.08 in 10.0 mi West 10.4 mph - N/A   Overcast
11:53 PM 33.1 °F 24.9 °F 30.0 °F 89% 30.08 in 10.0 mi WSW 10.4 mph - N/A   Overcast